SCP
0 0 0 0 0 0 0 0 0 0 0 0 0 0 0 0 0 0 0 0 0 0 0 0 0 0 0 0 0 0 0 0 0 0 0 0 0 0 0 0 0 0 0 0 0 0 0 0 0
0 0 0 0 0 0 0 0 0 0 0 0 0 0 0 0 0 0 0 0 0 0 0 0 0 0 0 0 0 0 0 0 0 0 0 0 0 0 0 0 0 0 0 0 0 0 0 0 0
0 0 0 0 0 0 0 0 0 0 0 0 0 0 0 0 0 0 0 0 0 0 0 0 0 0 0 0 0 0 0 0 0 0 0 0 0 0 0 0 0 0 0 0 0 0 0 0 0
0 0 0 0 0 0 0 0 0 0 0 0 0 0 0 0 0 0 0 0 0 0 0 0 0 0 0 0 0 0 0 0 0 0 0 0 0 0 0 0 0 0 0 0 0 0 0 0 0
0 0 0 0 0 0 0 0 0 0 0 0 0 0 0 0 0 0 0 0 0 0 0 0 0 0 0 0 0 0 0 0 0 0 0 0 0 0 0 0 0 0 0 0 0 0 0 0 0
0 0 0 0 0 0 0 0 0 0 0 0 0 0 0 0 0 0 0 0 0 0 0 0 0 0 0 0 0 0 0 0 0 0 0 0 0 0 0 0 0 0 0 0 0 0 0 0 0
0 0 0 0 0 0 0 0 0 0 0 0 0 0 0 0 0 0 0 0 0 0 0 0 0 0 0 0 0 0 0 0 0 0 0 0 0 0 0 0 0 0 0 0 0 0 0 0 0
0 0 0 0 0 0 0 0 0 0 0 0 0 0 0 0 0 0 0 0 0 0 0 0 0 0 0 0 0 0 0 0 0 0 0 0 0 0 0 0 0 0 0 0 0 0 0 0 0
0 0 0 0 0 0 0 0 0 0 0 0 0 0 0 0 0 0 0 0 0 0 0 0 0 0 0 0 0 0 0 0 0 0 0 0 0 0 0 0 0 0 0 0 0 0 0 0 0
0 0 0 0 0 0 0 0 0 0 0 0 0 0 0 0 0 0 0 0 0 0 0 0 0 0 0 0 0 0 0 0 0 0 0 0 0 0 0 0 0 0 0 0 0 0 0 0 0
0 0 0 0 0 0 0 0 0 0 0 0 0 0 0 0 0 0 0 0 0 0 0 0 -0 -0 -0 0 0 0 0 0 0 0 0 0 0 0 0 0 0 0 0 0 0 0 0 0 0
0 0 0 0 0 0 0 0 0 0 0 0 0 0 0 0 0 0 0 0 0 0 0 0 -0 -0 -0 -0 -0 0 0 0 0 0 0 0 0 0 0 0 0 0 0 0 0 0 0 0 0
0 0 0 0 0 0 0 0 0 0 0 0 0 0 0 0 0 0 0 0 0 0 0 0 -0 -0 -0 -0 0 0 0 0 0 0 0 0 0 0 0 0 0 0 0 0 0 0 0 0 0
0 0 0 0 0 0 0 0 0 0 0 0 0 0 0 0 0 0 0 0 0 0 0 0 0 -0 0 0 0 0 0 0 0 0 0 0 0 0 0 0 0 0 0 0 0 0 0 0 0
0 0 0 0 0 0 0 0 0 0 0 0 0 0 0 0 0 0 0 0 0 0 0 0 0 0 0 0 0 0 0 0 0 0 0 0 0 0 0 0 0 0 0 0 0 0 0 0 0
0 0 0 0 0 0 0 0 0 0 0 0 0 0 0 0 0 0 0 0 0 0 0 0 0 0 0 0 0 0 0 0 0 0 0 0 0 0 0 0 0 0 0 0 0 0 0 0 0
0 0 0 0 0 0 0 0 0 0 0 0 0 0 0 0 0 0 0 0 0 0 0 0 0 0 0 0 0 0 0 0 0 0 0 0 0 0 0 0 0 0 0 0 0 0 0 0 0
0 0 0 0 0 0 0 0 0 0 0 0 0 0 0 0 0 0 0 0 0 0 0 0 0 0 0 0 0 0 0 0 0 0 0 0 0 0 0 0 0 0 0 0 0 0 0 0 0
0 0 0 0 0 0 0 0 0 0 0 0 0 0 0 0 0 0 0 0 0 0 0 0 0 0 0 0 0 0 0 0 0 0 0 0 0 0 0 0 0 0 0 0 0 0 0 0 0
0 0 0 0 0 0 0 0 0 0 0 0 0 0 0 0 0 0 0 0 0 0 0 0 0 0 0 0 0 0 0 0 0 0 0 0 0 0 0 0 0 0 0 0 0 0 0 0 0
0 0 0 0 0 0 0 0 0 0 0 0 0 0 0 0 0 0 0 0 0 0 0 0 0 0 0 0 0 0 0 0 0 0 0 0 0 0 0 0 0 0 0 0 0 0 0 0 0
0 0 0 0 0 0 0 0 0 0 0 0 0 0 0 0 0 0 0 0 0 0 0 0 0 0 0 0 0 0 0 0 0 0 0 0 0 0 0 0 0 0 0 0 0 0 0 0 0
0 0 0 0 0 0 0 0 0 0 0 0 0 0 0 0 0 0 0 0 0 0 0 0 0 0 0 0 0 0 0 0 0 0 0 0 0 0 0 0 0 0 0 0 0 0 0 0 0
0 0 0 0 0 0 0 0 0 0 0 0 0 0 0 0 0 0 0 0 0 0 0 0 0 0 0 0 0 0 0 0 0 0 0 0 0 0 0 0 0 0 0 0 0 0 0 0 0
0 0 0 0 0 0 0 0 0 0 0 0 0 0 0 0 0 0 0 0 0 0 0 0 0 0 0 0 0 0 0 0 0 0 0 0 0 0 0 0 0 0 0 0 0 0 0 0 0
0 0 0 0 0 0 0 0 0 0 0 0 0 0 0 0 0 0 0 0 0 0 0 0 0 0 0 0 0 0 0 0 0 0 0 0 0 0 0 0 0 0 0 0 0 0 0 0 0
0 0 0 0 0 0 0 0 0 0 0 0 0 0 0 0 0 0 0 0 0 0 0 0 0 0 0 0 0 0 0 0 0 0 0 0 0 0 0 0 0 0 0 0 0 0 0 0 0
0 0 0 0 0 0 0 0 0 0 0 0 0 0 0 0 0 0 0 0 0 0 0 0 0 0 0 0 0 0 0 0 0 0 0 0 0 0 0 0 0 0 0 0 0 0 0 0 0
0 0 0 0 0 0 0 0 0 0 0 0 0 0 0 0 0 0 0 0 0 0 0 0 0 0 0 0 0 0 0 0 0 0 0 0 0 0 0 0 0 0 0 0 0 0 0 0 0
0 0 0 0 0 0 0 0 0 0 0 0 0 0 0 0 0 0 0 0 0 0 0 0 0 0 0 0 0 0 0 0 0 0 -0 0 0 0 0 0 0 0 0 0 0 0 0 0 0
Wind_Speed
3 2 2 2 2 4 8 6 5 5 5 7 6 5 6 7 6 6 4 3 4 4 5 6 7 7 7 7 8 9 9 9 9 9 9 9 9 9 8 8 8 9 9 9 9 9 9 10 10
1 1 2 2 1 6 7 5 6 6 6 5 5 6 6 7 6 6 4 3 3 5 5 7 8 7 8 8 8 9 9 9 9 9 9 9 9 9 8 8 9 9 9 9 10 9 10 10 10
2 1 1 1 4 6 7 6 6 7 5 2 4 5 5 6 4 4 4 4 4 5 6 8 7 8 8 8 8 9 9 9 9 9 9 9 9 9 9 10 10 10 10 10 10 10 9 9 9
2 2 1 4 9 8 6 6 5 6 5 4 4 6 6 6 4 5 5 4 5 6 6 8 7 7 8 8 9 8 9 9 9 9 9 9 9 9 9 10 10 10 10 10 10 10 10 10 10
2 1 4 7 8 7 6 5 4 4 5 5 5 7 8 6 5 6 5 5 5 6 6 8 7 7 8 8 8 8 8 8 9 9 9 9 9 9 10 9 10 10 10 10 10 10 10 10 10
1 1 4 7 8 6 5 4 4 5 6 5 5 6 7 6 5 5 5 5 5 6 6 7 8 7 7 7 7 7 8 8 8 8 9 9 9 9 9 9 9 9 9 9 10 9 10 10 10
0 2 5 7 7 6 4 3 3 5 6 5 3 5 7 6 4 4 5 5 5 5 5 5 6 6 6 7 7 7 7 8 7 8 8 8 8 9 9 9 9 9 9 9 9 9 10 10 9
0 3 6 5 6 5 4 3 3 4 6 5 2 4 5 5 4 5 5 5 5 5 4 4 5 4 4 5 7 6 7 7 7 7 7 6 6 7 7 8 9 9 9 9 9 9 9 9 9
2 3 4 4 4 5 5 5 5 4 6 5 4 5 6 7 6 5 5 5 4 4 4 4 4 4 4 5 6 5 5 5 3 5 5 2 3 5 5 9 9 8 8 9 9 9 8 7 8
1 2 3 3 3 5 6 5 5 6 6 5 6 7 7 7 6 5 4 4 3 3 3 3 3 3 3 3 3 2 3 3 2 3 3 3 4 4 5 8 8 7 7 7 8 6 4 2 4
1 3 3 3 4 6 6 5 4 5 4 4 5 7 7 6 5 4 3 3 3 3 3 3 2 2 2 2 2 2 2 2 2 3 3 2 3 3 3 3 4 4 3 4 5 3 3 3 3
3 3 3 4 4 5 5 5 4 2 3 4 5 7 8 6 5 3 3 3 2 2 2 2 2 1 2 2 1 1 1 1 2 2 3 2 2 2 2 2 2 2 2 3 2 2 4 4 4
4 4 4 5 6 6 6 5 4 3 3 4 6 7 7 5 4 3 3 3 2 2 1 2 1 1 1 1 1 1 1 1 2 1 1 2 1 2 2 2 2 2 2 2 2 2 4 3 4
4 5 5 5 6 5 5 4 3 3 5 6 7 7 6 5 4 3 2 1 1 1 1 1 1 1 1 1 1 1 1 1 1 1 1 2 2 2 1 2 2 2 1 2 2 3 3 3 3
5 5 5 4 4 4 5 4 3 5 6 6 6 6 5 4 3 2 2 1 1 1 1 1 1 1 0 1 1 1 0 1 1 1 1 2 2 1 1 1 1 1 1 1 2 3 2 3 3
5 5 5 4 4 4 6 3 4 6 7 6 5 5 5 4 3 2 1 1 1 0 1 2 1 1 1 1 1 1 1 1 1 1 1 1 1 1 1 1 1 1 1 1 1 1 2 2 2
6 5 4 5 4 5 5 3 5 7 7 6 6 5 5 5 4 3 2 1 0 0 0 2 2 1 1 1 1 1 1 1 1 1 1 1 1 1 1 1 1 1 1 1 1 1 1 2 2
4 4 4 4 4 5 6 4 5 7 7 7 6 5 5 5 4 3 2 2 1 1 0 1 2 1 2 1 1 2 2 2 2 2 2 2 1 1 1 0 0 1 1 1 1 1 1 1 1
4 5 4 2 2 5 6 6 5 6 7 7 7 6 5 4 4 4 3 3 2 2 1 1 1 2 2 1 1 1 1 1 2 2 2 2 2 1 1 0 1 0 1 1 1 1 1 1 1
6 6 4 3 2 4 4 6 5 6 7 7 7 7 6 5 5 4 4 4 3 2 1 2 2 2 2 1 0 0 1 1 2 1 2 2 1 1 1 0 1 1 1 1 1 1 0 0 0
7 6 4 3 2 4 4 6 6 5 5 5 6 6 5 5 5 5 5 4 3 3 2 2 2 2 2 2 1 1 2 1 1 1 1 2 1 1 1 1 1 0 0 1 1 2 1 1 1
5 3 4 5 6 3 5 5 5 5 6 6 6 6 5 5 5 5 5 5 4 3 3 3 3 3 2 2 2 2 1 1 1 1 1 1 1 1 1 1 0 0 0 1 1 1 1 1 1
1 2 4 5 6 5 6 7 3 4 5 5 5 5 5 4 5 5 5 5 4 4 3 3 4 4 3 3 2 1 2 1 1 1 2 1 2 2 2 1 0 0 0 0 0 1 1 1 1
4 5 4 4 5 7 5 7 3 3 3 3 4 5 5 4 5 5 5 5 5 5 4 4 4 4 3 3 2 2 2 1 2 1 2 1 1 1 2 1 1 0 0 1 1 1 1 1 1
6 6 4 5 6 4 2 5 4 2 0 2 2 4 4 5 5 5 6 6 5 5 5 4 4 4 3 3 2 2 2 1 1 1 1 1 1 1 1 1 1 1 1 1 1 1 2 1 2
6 7 5 4 4 2 4 6 1 3 1 1 2 4 5 5 5 5 6 5 5 5 5 4 4 4 3 2 2 2 2 1 1 1 1 1 1 1 1 1 1 1 1 1 1 1 1 1 2
5 5 4 6 5 6 5 3 2 3 2 2 3 5 5 5 5 5 5 5 5 5 5 4 4 4 3 2 2 1 1 1 1 1 1 1 1 1 1 1 1 1 1 1 1 1 1 1 1
3 2 4 6 6 6 5 5 3 5 4 4 4 5 5 5 5 5 5 5 5 4 4 4 4 4 3 3 2 1 1 0 0 0 1 1 1 1 1 1 1 1 1 1 1 1 1 2 1
5 5 5 6 6 6 5 1 2 2 3 3 4 4 5 5 5 4 4 4 4 5 5 4 4 3 3 3 2 2 1 1 0 0 1 1 1 1 1 2 1 1 1 1 1 2 2 2 3
4 5 7 7 6 7 7 3 4 1 2 2 3 3 4 4 4 4 4 5 5 5 5 5 4 4 3 3 3 2 2 2 1 0 1 1 1 1 2 2 2 1 2 2 2 2 3 3 3
Wind_Direction
169 190 241 240 198 100 83 78 77 83 73 60 55 62 65 46 31 62 79 65 51 64 73 81 61 61 69 76 78 78 75 72 71 71 73 74 75 78 78 78 79 77 77 74 72 74 88 88 89
165 218 242 244 159 110 90 87 83 68 83 99 79 72 75 70 53 81 94 73 68 69 72 69 63 62 68 74 76 75 72 70 72 72 73 74 75 77 77 80 82 80 79 77 75 76 90 89 91
157 264 292 102 85 87 98 96 92 89 91 96 85 62 51 62 70 82 82 99 89 76 71 73 65 70 70 70 72 72 73 73 74 74 73 74 74 75 74 76 80 78 78 79 78 78 81 85 89
217 197 163 99 91 76 93 105 113 117 100 79 94 86 78 53 57 81 104 109 94 83 76 79 67 71 68 68 69 71 74 74 74 74 72 73 73 74 75 77 79 77 78 78 77 78 77 77 79
234 207 120 105 96 93 93 94 116 104 92 85 93 93 89 70 72 93 110 102 91 83 78 84 69 68 65 65 66 69 73 74 74 73 70 70 70 71 73 77 79 77 77 77 76 78 77 77 76
190 174 126 112 107 106 103 106 112 98 97 97 95 99 92 90 91 101 107 99 90 86 84 90 86 71 65 63 66 66 69 72 71 69 67 67 67 69 71 73 77 77 78 77 76 78 78 77 75
122 114 110 118 122 117 107 105 97 100 95 79 81 96 107 104 96 110 107 101 91 86 85 85 92 95 88 69 63 65 67 68 68 67 66 68 70 70 70 71 72 73 76 78 78 78 78 78 74
20 130 125 126 136 122 121 125 89 87 90 86 73 90 113 118 123 123 115 107 98 91 84 80 79 77 83 90 74 65 65 65 69 67 65 72 86 83 74 79 72 71 72 76 77 76 78 78 75
240 157 132 138 147 125 136 134 113 96 107 97 74 69 92 122 136 130 121 112 98 87 84 82 77 73 68 73 88 90 89 74 88 95 88 88 87 84 87 68 70 72 75 75 73 73 77 84 87
216 142 113 122 136 131 136 132 135 140 124 117 111 100 112 130 141 137 128 120 110 96 88 78 72 72 71 66 84 83 86 84 63 74 83 71 66 64 68 87 75 75 78 88 81 80 95 84 89
98 104 112 125 133 141 140 130 136 151 127 130 139 136 137 138 137 134 128 112 98 91 81 69 57 68 73 79 66 65 70 69 64 64 78 76 81 95 85 96 111 105 111 99 104 118 77 69 65
120 96 107 123 136 150 146 137 128 118 86 103 129 139 144 146 143 138 130 114 107 87 73 69 62 71 74 81 82 73 74 65 60 64 67 71 68 65 73 76 74 78 77 73 76 72 78 69 68
128 118 109 117 130 136 133 131 125 123 112 120 132 141 149 151 147 136 120 115 110 99 79 63 50 54 75 76 70 99 81 62 71 49 56 65 64 70 78 81 76 70 73 83 73 73 72 66 60
112 118 123 132 139 145 142 140 151 137 145 143 145 149 156 155 152 140 135 131 125 122 96 83 83 96 113 140 138 77 80 96 79 69 46 58 61 62 59 75 77 70 68 70 70 71 69 64 59
139 143 144 147 156 157 172 166 170 152 161 158 157 154 155 155 156 153 145 148 123 117 103 81 36 83 100 84 87 65 48 60 73 74 43 59 50 48 59 55 75 75 80 85 74 77 69 70 68
187 200 187 157 173 175 218 190 156 165 176 173 170 163 162 165 171 159 151 143 88 84 89 94 88 90 87 100 120 93 85 75 65 69 61 62 80 64 59 50 63 67 70 81 90 88 72 68 59
205 213 193 162 182 189 221 214 157 178 191 190 187 180 176 171 175 169 156 143 118 130 115 107 102 101 102 99 122 111 90 76 63 59 57 36 43 64 88 52 35 77 85 87 84 84 73 67 55
210 212 204 187 165 198 218 222 180 188 204 207 198 197 191 186 178 172 161 150 139 127 120 116 109 105 108 120 118 109 88 71 59 55 61 61 38 25 57 122 143 86 96 82 86 84 75 68 50
238 228 224 193 173 214 227 233 216 198 207 215 211 206 201 197 185 169 158 151 139 126 124 108 114 111 106 110 123 108 104 84 69 50 46 71 68 40 51 355 97 94 116 115 119 114 115 91 58
224 225 219 172 168 227 236 249 238 211 214 221 222 212 207 198 188 173 166 156 144 133 134 123 111 100 97 69 72 106 94 83 71 52 51 52 67 57 55 87 105 140 135 134 127 133 132 107 272
222 236 231 213 185 209 246 241 214 201 206 215 226 225 217 211 198 182 173 162 155 145 135 123 109 103 94 94 76 86 100 94 87 62 51 42 48 48 39 81 111 129 159 150 159 176 186 209 232
227 222 224 212 228 221 235 265 206 198 201 210 214 215 216 208 200 183 174 168 166 153 142 133 118 108 95 96 90 97 85 84 51 11 43 46 52 54 37 40 89 146 125 149 186 188 224 229 227
251 166 203 223 247 255 224 257 212 172 219 215 207 207 208 199 190 181 175 170 162 146 137 130 118 112 103 97 97 102 88 76 65 44 47 44 62 52 41 25 45 109 106 159 164 187 242 235 251
153 159 164 205 237 245 228 249 253 177 219 213 197 198 195 185 178 173 164 158 146 137 134 130 123 109 100 104 107 101 94 94 84 53 38 36 65 55 48 18 347 304 267 231 213 211 224 256 252
206 224 223 214 215 232 160 242 263 88 101 267 217 192 180 172 170 167 162 160 149 143 137 135 132 121 115 115 111 110 100 92 83 43 28 20 37 45 33 355 324 343 329 302 254 230 232 233 245
213 242 260 271 260 240 198 239 174 92 37 269 198 173 163 166 167 165 162 161 155 153 152 151 146 136 128 127 118 109 101 87 62 30 3 348 5 20 359 321 317 326 316 304 270 250 237 243 239
213 226 281 282 275 267 232 219 209 160 162 146 147 156 163 166 169 169 164 164 161 161 164 166 163 157 150 147 136 118 105 88 53 4 354 345 355 357 356 291 274 293 284 282 260 250 236 249 245
290 230 220 243 260 259 243 239 219 170 161 150 157 164 165 165 170 170 168 169 165 161 166 171 173 171 167 167 163 145 138 102 353 350 9 342 339 339 318 289 244 243 248 237 248 255 255 245 241
177 202 231 246 262 273 269 240 80 184 174 180 170 172 173 175 175 173 172 170 165 165 169 175 178 177 173 178 174 179 179 198 215 286 344 315 310 303 304 301 288 273 265 246 219 260 251 248 245
240 234 232 249 245 252 272 276 101 180 188 199 194 184 179 178 177 173 172 173 173 177 178 180 182 184 185 188 188 195 188 201 214 248 281 287 300 307 307 306 291 281 270 266 251 246 252 252 249